Stations météo

réclame
Mon MeteoGroup
Marseille/Marignane, France (7650): Température de l'air & dewpoint: 16.10.2018 16:00:00 - 22.10.2018 16:00:00 (CEST)Marseille/Marignane, France (7650): Température de l'air 5cm: 16.10.2018 16:00:00 - 22.10.2018 16:00:00 (CEST)Marseille/Marignane, France (7650): Température de l'air -20cm & Température de l'air -100cm: 16.10.2018 16:00:00 - 22.10.2018 16:00:00 (CEST)Marseille/Marignane, France (7650): Vitesse du vent & gusts: 16.10.2018 16:00:00 - 22.10.2018 16:00:00 (CEST)Marseille/Marignane, France (7650): Direction du vent: 16.10.2018 16:00:00 - 22.10.2018 16:00:00 (CEST)Marseille/Marignane, France (7650): reduced air pressure: 16.10.2018 16:00:00 - 22.10.2018 16:00:00 (CEST)Marseille/Marignane, France (7650): visibility: 16.10.2018 16:00:00 - 22.10.2018 16:00:00 (CEST)Marseille/Marignane, France (7650): Ensoleillement: 16.10.2018 16:00:00 - 22.10.2018 16:00:00 (CEST)Marseille/Marignane, France (7650): Quantités de précipitations: 16.10.2018 16:00:00 - 22.10.2018 16:00:00 (CEST)
Date & Time tt [°C] td [°C] tt 5cm [°C] tt -20cm [°C] tt -100cm [°C] ff [km/h] ff [knt] fx [km/h] fx [knt] dd ppp [hPa] vv [km] sd [min] rr [mm]
22.10.2018 16:00:00 18,8 9,6 22,5 17,7 19,9 5 3 10 6 WNW 1019,9 14 60 0,0
22.10.2018 15:00:00 18,5 8,5 21,7 17,2 19,9 5 3 15 8 W 1020,3 14 60 0,0
22.10.2018 14:00:00 17,3 9,0 20,6 16,7 19,9 10 5 19 10 W 1020,7 14 60 0,0
22.10.2018 13:00:00 17,2 9,4 19,8 16,3 19,9 11 6 24 13 W 1021,3 13 60 0,0
22.10.2018 12:00:00 16,8 9,2 19,0 16,0 19,9 13 7 25 14 WNW 1021,3 10 60 0,0
22.10.2018 11:00:00 16,9 8,8 17,5 15,8 19,9 20 11 25 13 WNW 1021,2 13 58 0,0
22.10.2018 10:00:00 16,2 9,4 15,5 15,7 19,9 10 5 20 11 WNW 1021,1 16 7 0,0
22.10.2018 09:00:00 15,4 13,8 14,4 15,7 19,9 3 2 8 4 SSW 1020,8 7 0 0,0
22.10.2018 08:00:00 15,1 13,3 14,2 15,7 19,9 4 2 13 7 SSE 1020,2 7 0 0,0
22.10.2018 07:00:00 15,1 13,0 13,5 15,7 19,9 7 4 9 5 E 1019,8 8 0 0,0
22.10.2018 06:00:00 14,3 12,3 12,0 15,9 19,9 3 2 12 6 SE 1019,5 9 0 0,0
22.10.2018 05:00:00 12,6 11,2 10,7 16,0 19,9 11 6 15 8 SE 1019,5 7 0 0,0
22.10.2018 04:00:00 12,2 10,4 10,8 16,3 19,9 9 5 12 7 SE 1019,3 7 0 0,0
22.10.2018 03:00:00 12,4 10,3 10,7 16,5 19,9 10 5 12 7 SE 1018,9 7 0 0,0
22.10.2018 02:00:00 12,3 10,2 10,8 16,8 19,9 10 5 13 7 ESE 1018,3 8 0 0,0
22.10.2018 01:00:00 12,5 10,0 11,0 17,0 19,9 9 5 16 9 SE 1017,5 9 0 0,0
22.10.2018 00:00:00 14,7 10,1 13,1 17,3 19,9 10 5 22 12 NE 1016,7 12 0 0,0
21.10.2018 23:00:00 16,3 9,5 13,3 17,6 19,9 11 6 27 15 NNW 1015,8 16 0 0,0
21.10.2018 22:00:00 16,5 9,4 14,8 17,9 19,9 11 6 24 13 NNW 1015,3 15 0 0,0
21.10.2018 21:00:00 17,6 9,5 16,2 18,2 19,9 17 9 29 16 NW 1014,7 16 0 0,0
21.10.2018 20:00:00 17,8 10,2 16,6 18,5 19,9 20 11 40 22 NW 1014,5 16 0 0,0
21.10.2018 19:00:00 19,1 9,6 18,0 18,8 19,9 28 15 41 22 NW 1014,4 21 24 0,0
21.10.2018 18:00:00 20,5 9,7 20,7 18,9 19,9 30 16 50 27 NW 1014,7 17 60 0,0
21.10.2018 17:00:00 22,1 9,3 23,3 18,8 19,9 32 17 48 26 NNW 1015,5 11 60 0,0
21.10.2018 16:00:00 22,3 12,0 24,2 18,5 19,9 19 11 31 17 WNW 1016,1 6 60 0,0
21.10.2018 15:00:00 21,4 12,5 23,9 18,0 19,9 22 12 30 16 WNW 1016,9 5 60 0,0
21.10.2018 14:00:00 20,8 13,5 23,4 17,5 19,9 18 10 23 13 W 1018,1 5 60 0,0
21.10.2018 13:00:00 20,6 13,3 22,5 16,9 19,9 14 7 20 11 WNW 1019,1 13 60 0,0
21.10.2018 12:00:00 19,5 14,1 21,1 16,3 19,9 8 5 13 7 WSW 1019,8 13 60 0,0
21.10.2018 11:00:00 17,9 13,6 18,6 16,1 19,9 6 3 12 6 WNW 1020,5 14 60 0,0
21.10.2018 10:00:00 16,3 14,1 13,2 16,2 19,9 6 3 14 8 NNE 1020,9 7 60 0,0
21.10.2018 09:00:00 14,5 12,4 10,3 16,3 19,9 3 2 13 7 S 1020,7 8 38 0,0
21.10.2018 08:00:00 11,7 10,6 10,2 16,6 19,9 7 4 10 5 SE 1020,7 6 0 0,0
21.10.2018 07:00:00 12,0 11,1 10,4 16,9 20,0 7 4 12 6 SE 1021,0 6 0 0,0
21.10.2018 06:00:00 12,8 12,0 11,1 17,1 19,9 11 6 16 8 SE 1021,2 5 0 0,0
21.10.2018 05:00:00 13,8 13,3 11,4 17,3 20,0 6 3 15 8 NNW 1021,2 7 0 0,2
21.10.2018 04:00:00 13,5 12,6 11,7 17,6 20,0 10 5 13 7 SSE 1021,6 7 0 0,0
21.10.2018 03:00:00 13,5 12,4 11,2 17,9 20,0 5 3 6 4 S 1022,0 7 0 0,0
21.10.2018 02:00:00 14,2 13,1 12,6 18,2 20,0 7 4 10 5 SSE 1022,0 8 0 0,0
21.10.2018 01:00:00 14,1 12,7 12,5 18,5 20,0 4 2 12 6 ENE 1022,3 9 0 0,0
21.10.2018 00:00:00 15,1 13,1 13,4 18,8 20,0 5 3 12 6 S 1022,3 11 0 0,0
20.10.2018 23:00:00 15,8 13,6 14,0 19,1 20,0 7 4 11 6 ESE 1022,4 10 0 0,0
20.10.2018 22:00:00 16,6 13,7 14,5 19,4 19,9 5 3 13 7 SSE 1022,4 14 0 0,0
20.10.2018 21:00:00 17,2 14,3 15,5 19,7 20,0 6 3 11 6 S 1022,4 13 0 0,0
20.10.2018 20:00:00 19,3 14,5 16,2 19,9 19,9 3 2 8 4 E 1022,5 13 0 0,0
20.10.2018 19:00:00 20,4 15,8 18,2 19,9 20,0 0 0 16 9 N 1022,2 10 0 0,0
20.10.2018 18:00:00 22,6 12,5 21,7 19,9 20,0 3 2 7 4 SW 1021,8 35 6 0,0
20.10.2018 17:00:00 22,6 14,2 23,7 19,6 20,0 4 2 6 4 S 1021,8 34 0 0,0
20.10.2018 16:00:00 22,7 14,0 24,1 19,3 20,0 4 2 7 4 SSW 1021,7 12 0 0,0
20.10.2018 15:00:00 22,1 14,5 24,0 18,8 20,0 5 3 9 5 W 1022,1 11 27 0,0
20.10.2018 14:00:00 21,2 15,5 22,2 18,3 20,0 6 3 14 7 SW 1022,5 18 0 0,0
20.10.2018 13:00:00 21,0 16,0 23,3 17,7 19,9 11 6 16 9 WSW 1023,1 14 49 0,0
20.10.2018 12:00:00 19,7 14,9 22,1 17,2 20,0 8 4 12 6 W 1023,3 12 60 0,0
20.10.2018 11:00:00 19,5 15,2 20,9 17,0 20,0 4 2 9 5 W 1023,1 13 55 0,0
20.10.2018 10:00:00 18,4 14,7 15,0 17,0 20,0 4 2 10 6 SE 1022,6 12 55 0,0
20.10.2018 09:00:00 15,3 13,7 12,7 17,2 20,0 7 4 12 6 SE 1021,9 8 40 0,0
20.10.2018 08:00:00 14,9 13,6 11,7 17,4 20,0 9 5 13 7 NNW 1021,2 10 0 0,0
20.10.2018 07:00:00 13,9 12,5 12,0 17,7 20,0 4 2 12 6 ESE 1020,7 11 0 0,0
20.10.2018 06:00:00 14,1 12,8 12,5 17,9 20,0 9 5 11 6 SE 1020,0 9 0 0,0
20.10.2018 05:00:00 14,5 13,0 12,9 18,1 20,0 8 5 11 6 SE 1019,8 10 0 0,0
20.10.2018 04:00:00 15,6 13,8 12,7 18,4 20,0 3 1 11 6 N 1019,8 11 0 0,0
20.10.2018 03:00:00 15,6 13,8 13,3 18,7 20,0 6 3 10 5 ESE 1019,9 8 0 0,0
20.10.2018 02:00:00 15,5 14,0 13,6 18,9 20,0 3 2 11 6 ESE 1019,9 10 0 0,0
20.10.2018 01:00:00 16,1 14,3 14,5 19,2 20,0 7 4 13 7 SSE 1019,9 11 0 0,0
20.10.2018 00:00:00 16,1 14,3 14,4 19,5 20,0 7 4 9 5 SE 1019,7 11 0 0,0
19.10.2018 23:00:00 16,6 14,6 15,1 19,8 20,0 3 2 9 5 S 1019,5 13 0 0,0
19.10.2018 22:00:00 18,1 15,4 15,6 20,1 20,0 3 2 8 4 SE 1019,2 13 0 0,0
19.10.2018 21:00:00 19,4 15,3 16,1 20,4 20,0 4 2 9 5 ESE 1018,9 14 0 0,0
19.10.2018 20:00:00 20,0 16,0 17,6 20,6 20,0 6 4 13 7 SSE 1018,6 7 0 0,0
19.10.2018 19:00:00 20,7 15,5 19,4 20,7 20,0 11 6 23 12 W 1017,8 24 4 0,0
19.10.2018 18:00:00 23,1 15,9 23,3 20,7 20,0 12 7 18 10 NW 1017,1 28 60 0,0
19.10.2018 17:00:00 23,4 16,2 24,7 20,5 20,0 10 6 14 7 W 1017,0 24 47 0,0
19.10.2018 16:00:00 25,1 13,0 26,7 20,1 20,0 10 5 19 10 WSW 1016,9 33 60 0,0
19.10.2018 15:00:00 24,1 15,0 26,3 19,5 20,0 14 8 19 10 WSW 1017,0 30 57 0,0
19.10.2018 14:00:00 23,2 16,7 25,6 18,8 20,0 9 5 13 7 W 1017,2 23 60 0,0
19.10.2018 13:00:00 21,7 15,5 22,7 18,3 20,0 10 5 13 7 WSW 1017,9 17 38 0,0
19.10.2018 12:00:00 20,1 15,1 22,4 17,9 20,0 5 3 9 5 WNW 1018,2 19 36 0,0
19.10.2018 11:00:00 20,2 15,6 19,9 17,7 20,0 7 4 13 7 W 1018,1 15 40 0,0
19.10.2018 10:00:00 19,3 15,0 17,0 17,7 20,0 3 2 10 6 SW 1017,6 20 54 0,0
19.10.2018 09:00:00 16,9 14,4 14,0 17,8 20,0 8 4 10 6 SE 1016,9 14 27 0,0
19.10.2018 08:00:00 15,4 13,8 13,9 18,0 20,0 6 3 9 5 SW 1016,2 14 0 0,0
19.10.2018 07:00:00 16,8 13,9 13,8 18,2 20,0 6 3 19 11 NE 1015,9 17 0 0,0
19.10.2018 06:00:00 15,6 14,0 13,7 18,4 20,0 5 3 8 4 E 1015,8 15 0 0,0
19.10.2018 05:00:00 16,2 13,9 14,3 18,6 20,0 4 2 12 6 SSE 1015,5 18 0 0,0
19.10.2018 04:00:00 15,9 14,4 14,4 18,9 20,0 4 2 8 4 SE 1015,3 13 0 0,0
19.10.2018 03:00:00 16,1 15,1 14,6 19,1 20,0 6 3 13 7 SSE 1015,4 11 0 0,0
19.10.2018 02:00:00 16,3 15,0 14,8 19,3 20,0 2 1 9 5 SSE 1015,5 14 0 0,0
19.10.2018 01:00:00 16,8 15,1 15,2 19,6 20,0 5 3 8 5 SE 1015,2 12 0 0,0
19.10.2018 00:00:00 17,7 15,9 15,4 19,9 20,0 4 2 9 5 NNE 1015,1 11 0 0,0
18.10.2018 23:00:00 18,4 15,5 16,7 20,1 20,0 6 3 11 6 SE 1014,7 11 0 0,0
18.10.2018 22:00:00 18,7 15,9 17,6 20,3 20,0 7 4 13 7 S 1014,2 9 0 0,0
18.10.2018 21:00:00 19,6 16,4 18,4 20,5 20,0 5 3 25 14 SE 1013,6 10 0 0,0
18.10.2018 20:00:00 21,2 17,2 20,0 20,7 20,0 10 6 27 14 N 1013,5 14 0 0,0
18.10.2018 19:00:00 22,2 16,2 21,2 20,8 20,0 5 3 27 14 N 1013,0 21 0 0,0
18.10.2018 18:00:00 23,2 16,5 23,0 20,8 20,0 14 7 29 16 N 1012,3 23 7 0,0
18.10.2018 17:00:00 23,7 16,2 24,2 20,6 20,0 8 4 14 8 NNW 1012,4 19 16 0,0
18.10.2018 16:00:00 22,6 17,3 22,9 20,3 20,0 10 6 16 9 W 1012,7 15 7 0,0
18.10.2018 15:00:00 22,4 17,3 23,5 19,9 20,0 10 5 14 8 WSW 1013,0 12 37 0,0
18.10.2018 14:00:00 21,6 17,0 22,9 19,4 20,0 9 5 15 8 W 1013,5 14 27 0,0
18.10.2018 13:00:00 21,5 16,5 23,5 19,0 20,0 8 4 12 7 W 1013,9 8 49 0,0
18.10.2018 12:00:00 20,8 16,8 22,3 18,7 20,1 7 4 11 6 WNW 1014,1 18 34 0,0
18.10.2018 11:00:00 20,3 16,7 20,2 18,5 20,0 9 5 12 6 WSW 1014,2 16 8 0,0
18.10.2018 10:00:00 19,6 15,5 18,7 18,5 20,0 7 4 9 5 SSW 1014,3 15 21 0,0
18.10.2018 09:00:00 18,3 15,9 17,4 18,5 20,1 2 1 25 13 SSW 1014,1 19 0 0,2
18.10.2018 08:00:00 18,4 15,6 17,2 18,6 20,1 13 7 16 9 N 1014,0 14 0 0,2
18.10.2018 07:00:00 18,4 15,3 17,8 18,7 20,1 10 5 18 10 NE 1013,9 24 0 0,0
18.10.2018 06:00:00 18,4 15,3 17,5 18,8 20,0 11 6 19 11 NE 1013,6 23 0 0,0
18.10.2018 05:00:00 18,7 15,4 17,9 18,9 20,0 7 4 16 9 N 1013,5 25 0 0,0
18.10.2018 04:00:00 19,0 15,7 17,7 19,1 20,1 8 4 13 7 NNE 1013,4 27 0 0,0
18.10.2018 03:00:00 18,9 15,6 17,5 19,2 20,1 5 3 26 14 ENE 1014,2 29 0 0,0
18.10.2018 02:00:00 18,6 16,0 17,2 19,3 20,1 18 10 45 24 NE 1014,7 27 0 0,0
18.10.2018 01:00:00 18,4 16,2 17,2 19,4 20,1 18 10 33 18 NE 1015,0 3,7 0 1,6
18.10.2018 00:00:00 18,3 17,5 18,0 19,5 20,1 2 1 9 5 W 1015,3 4,8 0 0,0
17.10.2018 23:00:00 18,7 17,7 18,0 19,7 20,1 4 2 9 5 NNW 1015,1 6 0 0,2
17.10.2018 22:00:00 18,7 17,4 18,0 19,8 20,1 2 1 6 3 NW 1015,1 8 0 0,0
17.10.2018 21:00:00 19,1 17,1 17,9 19,9 20,1 5 3 8 4 WNW 1015,1 10 0 0,0
17.10.2018 20:00:00 19,1 17,4 18,0 20,1 20,1 5 3 18 10 SW 1014,9 15 0 0,9
17.10.2018 19:00:00 19,9 17,9 18,6 20,1 20,1 13 7 19 10 ENE 1014,7 3,1 0 2,8
17.10.2018 18:00:00 21,4 16,4 21,9 20,1 20,1 4 2 11 6 SE 1014,0 19 0 0,0
17.10.2018 17:00:00 21,3 16,7 21,2 20,0 20,1 8 4 14 7 SSE 1014,3 17 0 0,0
17.10.2018 16:00:00 20,9 16,5 21,0 19,8 20,1 8 4 18 10 W 1014,4 15 0 0,0
17.10.2018 15:00:00 21,5 16,7 22,6 19,3 20,1 12 7 18 10 WSW 1014,4 12 43 0,0
17.10.2018 14:00:00 21,4 16,8 22,0 18,8 20,1 13 7 16 9 WSW 1015,3 15 43 0,0
17.10.2018 13:00:00 19,6 16,2 21,8 18,3 20,1 11 6 15 8 W 1016,3 11 23 0,0
17.10.2018 12:00:00 19,4 16,1 21,1 17,8 20,1 11 6 15 8 W 1016,8 15 54 0,0
17.10.2018 11:00:00 18,7 15,9 17,5 17,7 20,1 8 4 11 6 WNW 1017,0 13 15 0,0
17.10.2018 10:00:00 17,2 15,5 16,3 17,7 20,2 4 2 18 10 N 1017,1 14 0 0,0
17.10.2018 09:00:00 16,7 15,2 16,0 17,8 20,1 6 3 20 11 N 1017,1 14 0 0,0
17.10.2018 08:00:00 16,6 15,1 15,7 17,8 20,2 4 2 8 4 NW 1017,0 14 0 0,6
17.10.2018 07:00:00 16,6 15,0 15,9 17,9 20,2 4 2 18 10 NE 1017,2 4,8 0 0,2
17.10.2018 06:00:00 16,7 15,4 15,9 17,9 20,2 7 4 14 8 NW 1017,2 11 0 0,4
17.10.2018 05:00:00 16,6 15,6 16,2 18,0 20,2 3 2 10 5 ENE 1017,3 8 0 0,0
17.10.2018 04:00:00 16,5 15,7 16,2 18,1 20,2 6 4 9 5 SE 1017,6 3,4 0 0,0
17.10.2018 03:00:00 16,5 15,7 16,1 18,2 20,2 7 4 10 6 NNW 1018,1 4,4 0 0,2
17.10.2018 02:00:00 16,8 16,0 16,4 18,2 20,2 6 4 9 5 SW 1018,6 2,2 0 1,4
17.10.2018 01:00:00 17,1 16,1 16,4 18,3 20,2 0 0 9 5 N 1018,7 4,6 0 0,2
17.10.2018 00:00:00 17,3 15,8 16,7 18,4 20,2 4 2 8 4 SSE 1018,8 4,4 0 0,0
16.10.2018 23:00:00 17,4 15,4 17,0 18,5 20,2 3 2 6 3 SSE 1018,9 7 0 0,0
16.10.2018 22:00:00 17,5 15,7 17,1 18,7 20,2 5 3 9 5 SE 1018,9 6 0 0,0
16.10.2018 21:00:00 18,0 14,9 16,7 18,8 20,2 5 3 7 4 NNW 1018,7 7 0 0,0
16.10.2018 20:00:00 17,8 15,1 17,1 18,9 20,2 3 2 10 5 NW 1018,7 10 0 0,0
16.10.2018 19:00:00 18,4 14,5 18,1 19,0 20,2 9 5 17 9 W 1018,2 15 0 0,0
16.10.2018 18:00:00 19,2 15,1 16,9 18,9 20,2 9 5 29 16 NNW 1017,8 13 0 0,0
16.10.2018 17:00:00 20,9 14,1 21,1 18,6 20,2 19 10 31 17 NNE 1017,5 18 47 0,0
16.10.2018 16:00:00 20,9 16,1 23,4 18,1 20,2 17 9 26 14 N 1017,3 10 56 0,0

tt = Température de l'air
td = dewpoint
tt 5cm = Température de l'air 5cm
tt -20cm = Température de l'air -20cm
tt -100cm = Température de l'air -100cm
ff = Vitesse du vent
fx = gusts
dd = Direction du vent
ppp = reduced air pressure
vv = visibility
sd = Ensoleillement
rr = Quantités de précipitations

stations d'obs. à proximité